Find Kosmos-2080

NORAD ID: 20620 Int'l Des: 1990-045 Owner: UNKS Country: SU Constellation: GLONASS operational
MEOCIRCULAR

当前视图

正在加载3D地球...

关于 Kosmos-2080

正在加载描述...

即将过境

Passes for default location (London). Set your location on the main map for personalized predictions.

高度历史

Loading altitude history...

两行轨道根数

1 20620U 90045B 26151.45306278 -.00000060 00000-0 00000+0 0 9994
2 20620 64.7178 308.9297 0024232 30.2568 313.2960 2.13102976280241
Epoch: May 31, 2026 • Age: 10 hours

当前状态

高度 19161.8 km
速度 3.95 km/s
星下点 -57.97°S, 63.41°E
发射日期 May 19, 1990
运行时间 36 years
类型 other

技术详情

分类 Payload
质量 1300.00 kg
干质量 1200.00 kg
总质量 1300.00 kg
长度 4.00 m
直径 1.50 m
跨度 7.80 m
形状 Cyl + Ant + 2 Pan
制造商 POL
平台类型 Uragan
阶段状态 In Orbit
所有者/国家 UNKS/SU

Most Searched